Regional Weather Roundup
Issued by NWS

Home | Current Version | Previous Version | Graphics & Text | Print | Product List | Glossary On
Versions: 1 2 3 4 5 6 7 8 9 10 11 12 13 14 15 16 17 18 19 20 21 22 23 24 25 26 27 28 29 30 31 32 33 34 35 36 37 38 39 40 41 42 43 44 45 46 47 48 49 50
000
ASUS43 KFSD 220510
RWRSD

WEATHER ROUNDUP FOR SOUTH DAKOTA
NATIONAL WEATHER SERVICE SIOUX FALLS SD
1200 AM CDT FRI AUG 22 2014

NOTE: "FAIR" INDICATES FEW OR NO CLOUDS BELOW 12,000 FEET WITH NO
SIGNIFICANT WEATHER AND/OR OBSTRUCTIONS TO VISIBILITY.


SDZ001>005-009-010-012>017-220600-
NORTHWEST AND NORTH CENTRAL SOUTH DAKOTA

CITY           SKY/WX    TMP DP  RH WIND       PRES   REMARKS
BUFFALO          N/A     63  61  93 N7        29.96R
FAITH            N/A     67  61  81 E14       29.93F
MOBRIDGE       PTCLDY    70  63  78 NE8       29.91S
$$

SDZ012>016-024>037-041>051-057-063-072>074-220600-
SOUTHWEST AND SOUTH CENTRAL SOUTH DAKOTA

CITY           SKY/WX    TMP DP  RH WIND       PRES   REMARKS
RAPID CTY ARPT MOCLDY    63  60  90 NW7       30.00R
PIERRE         CLEAR     67  61  81 E6        29.91S
CUSTER         PTCLDY    60  53  77 NE5       30.12S
ELLSWORTH AFB  MOCLDY    64  61  92 W13       30.00R
PHILIP         PTCLDY    70  55  59 S7        29.94R
PINE RIDGE     CLEAR     76  55  48 SE16G23   29.96F
WINNER         FAIR      68  61  78 E6        29.94S
$$

SDZ004>011-016>023-039-040-220600-
NORTHEAST SOUTH DAKOTA

CITY           SKY/WX    TMP DP  RH WIND       PRES   REMARKS
ABERDEEN       CLEAR     65  63  93 NW3       29.91R
WATERTOWN      CLEAR     69  67  93 CALM      29.91S
SISSETON         N/A     68  67  96 NW5       29.88R
$$

SDZ017-020-022-023-036>040-048>070-220600-
SOUTHEAST SOUTH DAKOTA

CITY           SKY/WX    TMP DP  RH WIND       PRES   REMARKS
SIOUX FALLS    PTCLDY    71  68  90 CALM      29.90S
HURON          PTCLDY    69  65  86 NE3       29.91R
CHAMBERLAIN    PTCLDY    69  64  86 E3        29.93S
MITCHELL       PTCLDY    69  66  90 CALM      29.91S
YANKTON        PTCLDY    73  70  88 NE6       29.89S
$$

ABBREVIATIONS USED IN REMARKS
   TC - TEMPERATURE IN CELSIUS
  WCI - WIND CHILL INDEX
   HX - HEAT INDEX
  VSB - VISIBILITY



USA.gov is the U.S. government's official web portal to all federal, state and local government web resources and services.